This demonstration page uses our WeatherBlox Daily Observations layout. Learn more.

Left ArrowRight Arrow

34.16533, -84.80231

Hourly Observations for July 5, 2016

Temp ( °F °C ) Dew Point ( °F °C ) Humidity (%) Winds ( mph kmh ) Pressure ( in mb ) Visibility ( mi km ) Precip ( " mm )
12:53 am 00:53 Clear 81 27.2 70 21.1 69 69 SSW 6 9 30.00 1016 10 16 0.00 0.00
1:53 am 01:53 Clear 81 27.2 71 21.7 72 72 S 6 9 29.99 1016 10 16 0.00 0.00
2:53 am 02:53 Clear 80 26.7 71 21.7 74 74 VRB 5 7 29.97 1015 10 16 0.00 0.00
3:53 am 03:53 Clear 79 26.1 72 22.2 79 79 VRB 3 6 29.97 1015 10 16 0.00 0.00
4:53 am 04:53 Clear 79 26.1 72 22.2 79 79 VRB 6 9 29.98 1015 10 16 0.00 0.00
5:53 am 05:53 Clear 78 25.6 72 22.2 82 82 VRB 3 6 30.00 1016 10 16 0.00 0.00
6:53 am 06:53 Sunny 78 25.6 72 22.2 82 82 Calm 30.01 1016 10 16 0.00 0.00
7:53 am 07:53 Mostly Sunny 79 26.1 72 22.2 79 79 VRB 3 6 30.03 1017 10 16 0.00 0.00
8:53 am 08:53 Mostly Cloudy 81 27.2 72 22.2 74 74 VRB 5 7 30.03 1017 10 16 0.00 0.00
9:53 am 09:53 Mostly Cloudy 84 28.9 73 22.8 70 70 VRB 6 9 30.04 1017 10 16 0.00 0.00
10:33 am 10:33 Cloudy with Light Rain 81 27.2 73 22.8 77 77 VRB 3 6 30.03 1017 6 10 0.00 0.03
10:53 am 10:53 Cloudy with Light Rain 77 25 72 22.2 85 85 VRB 5 7 30.05 1018 9 14 0.04 1.02
11:02 am 11:02 Cloudy with Thunderstorms 78 25.6 72 22.2 82 82 VRB 3 6 30.03 1017 10 16 0.00 0.03
11:31 am 11:31 Mostly Cloudy with Nearby Thunderstorms 76 24.4 71 21.7 85 85 VRB 7 11 30.09 1019 10 16 0.00 0.03
11:46 am 11:46 Cloudy with Light Rain 75 23.9 72 22.2 90 90 VRB 3 6 30.06 1018 4 6 0.03 0.76
11:53 am 11:53 Cloudy with Light Rain 75 23.9 73 22.8 94 94 Calm 30.05 1018 5 8 0.04 1.02
12:53 pm 12:53 Mostly Sunny 80 26.7 74 23.3 82 82 Calm 30.05 1018 10 16 0.00 0.03
1:53 pm 13:53 Mostly Cloudy with Light Rain 78 25.6 74 23.3 87 87 Calm 30.06 1018 10 16 0.02 0.51
2:44 pm 14:44 Cloudy with Light Rain 77 25 74 23.3 90 90 VRB 3 6 30.06 1018 10 16 0.02 0.51
2:53 pm 14:53 Cloudy 77 25 74 23.3 90 90 VRB 3 6 30.04 1017 10 16 0.02 0.51
3:08 pm 15:08 Cloudy 78 25.6 74 23.3 87 87 Calm 30.03 1017 10 16 0.00 0.00
3:33 pm 15:33 Cloudy 78 25.6 74 23.3 87 87 Calm 30.00 1016 10 16 0.00 0.00
3:53 pm 15:53 Mostly Cloudy 77 25 75 23.9 94 94 VRB 3 6 30.04 1017 10 16 0.00 0.00
4:19 pm 16:19 Partly Cloudy 78 25.6 75 23.9 90 90 S 5 7 30.00 1016 10 16 0.00 0.00
4:33 pm 16:33 Mostly Cloudy 77 25 74 23.3 90 90 VRB 3 6 30.00 1016 10 16 0.00 0.00
4:53 pm 16:53 Cloudy 77 25 74 23.3 90 90 VRB 3 6 30.03 1017 10 16 0.00 0.00
5:27 pm 17:27 Partly Cloudy 78 25.6 74 23.3 87 87 SSW 7 11 30.03 1017 10 16 0.00 0.00
5:53 pm 17:53 Mostly Sunny 78 25.6 74 23.3 87 87 SSW 5 7 30.04 1017 10 16 0.00 0.00
6:53 pm 18:53 Sunny 79 26.1 74 23.3 85 85 Calm 30.03 1017 10 16 0.00 0.00
7:53 pm 19:53 Sunny 79 26.1 74 23.3 85 85 Calm 30.02 1017 10 16 0.00 0.00
8:53 pm 20:53 Partly Cloudy 78 25.6 75 23.9 90 90 Calm 30.03 1017 10 16 0.00 0.00
9:53 pm 21:53 Clear 75 23.9 74 23.3 96 96 Calm 30.02 1017 10 16 0.00 0.00
10:53 pm 22:53 Clear 74 23.3 73 22.8 97 97 Calm 30.03 1017 8 13 0.00 0.00
11:53 pm 23:53 Mostly Clear 74 23.3 73 22.8 97 97 Calm 30.04 1017 8 13 0.00 0.00

Powered by AerisWeather